Wind_Speed
57 60 57 56 53 52 51 48 45 44 44 49 57 66 62 53 46 32 14 10 12 5 18 24 21 23 18 14 13 20 11 8 9 7 6 4 4 7 6 8 12 13 9 5 8 6 9 10 12 7 1 4 6 6
54 52 52 52 52 50 49 49 46 45 41 61 65 69 63 54 39 37 12 19 31 9 16 18 19 11 10 14 12 19 5 20 5 6 5 4 4 6 9 6 12 8 9 5 9 5 5 14 5 13 4 5 6 6
46 48 48 49 51 44 42 38 30 50 57 64 66 69 59 50 43 28 32 31 31 12 12 13 11 9 8 13 29 10 3 12 8 6 5 3 4 7 6 7 11 10 14 4 4 11 13 11 17 7 9 8 7 7
44 44 41 42 42 37 34 45 52 69 62 63 58 64 56 46 32 39 23 18 28 7 7 5 8 7 8 18 14 9 15 10 13 7 4 3 3 6 6 2 11 7 12 14 11 12 5 12 16 17 12 11 9 7
37 38 38 38 31 38 55 49 54 64 62 62 58 62 51 44 42 44 35 18 19 7 5 10 17 9 11 11 11 15 20 13 8 6 4 5 1 3 3 3 9 11 10 11 5 8 10 3 14 17 17 14 12 10
38 39 37 33 32 47 60 62 63 64 62 59 56 54 47 45 46 32 5 13 20 27 8 6 9 8 12 13 15 15 15 8 6 4 6 3 3 3 4 6 9 13 18 16 12 5 8 5 5 12 17 16 14 10
37 37 37 41 56 59 59 63 65 67 64 60 58 55 51 45 33 6 7 19 16 17 5 7 6 5 16 14 11 8 8 4 3 4 3 5 5 4 4 7 4 8 11 16 14 11 9 9 8 7 12 14 12 12
30 43 38 49 50 57 59 63 65 66 65 61 56 48 49 43 32 17 29 23 13 9 5 5 5 7 11 8 5 4 5 5 4 4 1 6 5 4 6 12 17 15 10 10 12 12 10 8 12 9 12 12 10 11
26 33 36 46 50 58 59 62 63 61 62 60 55 50 40 18 5 10 21 16 11 6 4 4 10 6 7 7 7 4 4 4 3 5 6 4 7 9 11 14 13 12 13 15 14 13 12 10 10 12 11 12 12 11
38 38 38 46 53 55 59 62 65 63 58 53 34 12 4 5 24 18 10 3 3 3 2 6 8 6 13 10 6 5 4 4 3 6 3 5 10 17 15 15 11 11 12 10 12 16 15 14 12 12 12 13 14 14
37 40 43 50 55 59 61 65 64 61 51 13 3 3 19 17 6 3 4 3 4 4 4 6 10 13 11 9 8 4 4 4 3 4 4 4 5 10 19 22 19 13 11 14 14 13 17 14 13 12 12 14 14 15
37 40 42 54 58 62 67 66 61 30 9 13 23 17 5 4 3 5 4 4 4 6 6 12 13 9 9 6 3 4 4 4 4 4 3 4 5 12 10 8 13 18 17 14 18 14 15 16 17 17 16 16 16 15
37 41 50 56 59 63 63 51 33 53 52 26 7 4 2 2 5 6 8 4 6 7 12 14 12 6 4 2 3 4 5 5 2 3 4 6 4 3 4 7 8 10 20 19 17 16 15 17 16 16 16 15 15 15
38 44 53 58 59 55 46 43 48 28 8 4 4 5 2 4 5 3 8 9 7 11 15 12 9 4 4 4 3 4 4 4 4 5 7 7 8 8 6 6 7 8 13 17 18 18 19 18 17 13 14 17 20 18
41 50 56 56 54 51 45 42 20 9 5 3 4 4 3 5 6 7 9 9 11 14 14 11 5 5 5 4 4 4 5 5 6 5 4 1 1 5 8 7 7 9 10 14 20 20 17 17 15 14 13 15 14 17
46 46 35 53 54 45 38 22 7 6 3 2 4 4 8 9 6 5 9 10 12 12 11 5 4 5 4 5 6 8 6 7 4 5 2 3 3 4 6 7 7 13 18 19 20 19 17 15 15 14 13 13 15 18
35 9 47 52 47 28 23 12 8 5 3 3 3 4 4 5 7 8 9 11 14 13 6 4 6 6 6 4 5 6 5 3 4 2 3 3 3 6 6 9 10 15 19 18 18 18 16 14 13 15 14 13 12 11
18 50 55 47 35 26 10 7 4 3 3 3 4 5 3 5 9 8 8 11 12 10 6 4 5 5 5 6 4 5 7 4 2 3 3 3 4 7 9 11 15 17 18 17 16 15 15 17 15 13 12 12 11 11
44 46 42 37 22 9 3 5 4 3 4 4 5 5 4 6 6 7 9 12 14 7 5 3 3 4 4 3 4 4 5 5 4 4 4 5 7 9 11 14 17 17 16 16 15 14 14 14 13 11 10 10 10 10
43 33 26 21 18 5 4 1 1 3 4 4 6 7 6 5 8 8 10 11 9 6 3 4 4 3 3 3 3 3 4 5 6 6 5 5 9 12 13 15 15 16 15 15 14 13 13 12 11 10 10 10 10 10
28 18 22 20 7 6 4 3 3 3 5 3 7 6 5 5 7 8 8 8 7 4 4 4 4 3 3 3 6 6 6 9 6 4 6 6 12 14 14 15 16 16 15 15 13 13 13 12 11 11 10 10 9 8
7 9 6 8 5 4 3 3 4 4 3 6 6 4 5 5 5 6 7 6 4 7 5 4 6 5 5 7 8 8 9 10 7 5 5 12 8 9 12 15 16 13 14 14 15 13 15 14 13 13 14 16 12 11
10 6 6 5 4 3 2 3 2 3 4 7 6 5 3 4 5 8 5 5 5 5 9 7 7 10 6 10 10 8 12 12 9 8 9 10 12 14 15 16 16 14 12 14 15 15 14 15 17 17 16 16 14 15
8 4 3 3 2 4 3 2 3 4 4 6 6 4 6 4 7 5 4 5 5 7 9 12 12 6 6 8 7 10 13 13 10 10 11 11 9 12 15 16 16 16 16 15 15 15 15 20 18 19 19 18 17 17
3 3 2 4 2 5 4 5 4 3 3 4 4 3 4 5 5 4 4 4 7 8 9 10 9 9 9 8 8 13 15 15 11 7 12 12 11 11 12 14 15 17 16 17 18 22 22 19 21 19 19 20 19 17
2 3 5 4 5 5 7 6 6 6 5 4 4 5 3 4 4 6 4 7 7 9 8 9 11 11 11 12 9 9 16 16 14 11 13 17 15 14 11 9 8 14 18 20 23 23 21 21 21 21 20 21 22 19
4 5 4 3 4 7 4 3 9 5 5 6 6 5 5 5 7 3 4 6 6 13 16 20 19 13 12 16 21 19 18 19 19 17 15 18 20 18 16 14 13 13 16 23 23 23 24 23 22 22 21 20 23 24
4 7 8 8 5 5 4 5 6 7 5 5 8 7 7 6 4 4 4 5 9 4 6 11 14 16 15 14 14 16 14 14 15 13 13 14 14 18 20 20 16 15 17 18 19 20 21 22 23 22 23 24 24 25
5 8 8 7 5 4 4 6 5 4 6 9 7 6 4 3 2 2 3 4 6 7 7 9 9 11 10 7 10 14 15 20 16 7 9 6 4 15 19 21 20 20 21 22 21 20 19 20 21 23 22 23 21 21
7 11 7 10 6 10 5 6 5 5 7 6 6 4 3 1 3 4 5 6 9 8 9 9 10 13 9 11 9 10 16 21 23 18 8 8 12 21 18 19 20 21 20 19 19 18 18 16 15 15 18 20 21 22
9 11 7 7 6 7 3 3 1 3 2 3 2 2 5 2 3 6 10 9 9 10 9 8 8 11 11 11 11 9 7 20 24 24 19 12 7 11 11 11 12 15 18 19 19 19 19 19 20 21 21 21 22 22
6 10 11 10 6 4 4 4 5 4 4 4 4 3 1 1 3 4 9 14 10 8 13 12 10 12 23 20 20 20 9 15 21 21 21 21 19 16 15 14 13 12 13 16 18 18 21 21 21 22 22 22 23 23
7 6 10 9 5 7 5 5 6 5 4 5 5 6 6 6 9 4 8 20 23 25 22 27 27 27 21 23 22 21 19 13 11 13 14 14 14 13 12 13 15 14 13 16 18 18 20 21 21 21 22 22 24 23
Wind_Direction
145 151 155 159 163 168 168 179 182 187 187 188 180 166 157 155 167 148 120 141 159 123 144 165 155 167 156 144 150 153 137 188 184 189 204 186 190 190 183 187 178 184 186 187 216 227 249 169 149 205 101 143 182 195
138 143 149 152 158 168 175 178 183 187 189 168 163 159 157 152 159 148 98 105 112 102 137 126 161 173 181 161 134 169 141 167 154 170 207 170 198 166 196 190 180 199 206 178 204 222 238 181 202 209 208 200 198 210
133 141 147 152 161 167 172 171 187 166 164 160 159 159 153 157 158 146 127 117 101 109 99 117 110 80 105 143 156 162 131 165 169 156 161 193 200 181 188 222 181 236 205 225 197 241 223 212 222 204 214 219 199 202
135 144 148 156 161 161 162 163 156 158 150 155 152 153 157 160 157 140 116 126 115 110 103 108 136 70 111 138 162 171 154 155 153 183 177 183 215 216 209 257 205 193 185 214 242 245 218 229 221 224 220 210 221 215
139 149 153 152 150 164 153 158 149 148 152 148 145 148 150 143 142 119 102 92 109 100 127 129 104 91 135 144 137 131 149 153 175 182 201 210 144 189 218 273 232 204 194 201 215 221 211 242 214 221 219 212 216 226
146 149 152 151 146 147 145 147 145 143 142 147 150 147 147 142 136 125 64 50 97 123 128 126 94 119 134 132 127 138 159 181 184 200 207 199 59 253 225 243 231 223 214 225 233 225 226 243 240 218 217 218 223 222
143 148 151 148 147 147 143 140 139 140 140 140 139 139 142 142 147 99 136 149 147 120 105 117 118 133 129 118 118 120 148 172 202 203 236 214 189 220 247 238 206 223 231 219 236 223 229 219 229 211 201 209 207 212
146 152 143 145 145 140 140 136 135 138 130 127 123 130 134 125 112 89 121 142 137 105 93 113 106 147 196 150 127 168 153 174 198 222 178 225 157 225 248 239 239 240 217 214 221 220 224 222 222 197 210 211 189 195
134 142 139 141 143 138 141 140 135 130 129 128 125 112 102 89 73 121 117 99 82 85 107 131 152 155 181 162 116 162 184 184 104 228 227 217 217 219 235 234 234 225 225 230 211 213 214 225 221 204 200 192 194 190
143 142 144 143 144 139 142 141 137 136 130 127 120 57 65 101 124 114 44 37 63 74 76 140 117 138 167 151 161 141 189 211 208 214 192 243 248 246 229 242 237 230 207 198 200 200 208 206 211 198 196 195 202 199
142 142 143 142 145 142 142 144 140 134 131 121 76 71 126 121 74 58 95 150 149 115 109 143 135 140 158 162 142 153 176 173 233 171 218 236 243 225 225 229 231 220 211 202 206 198 202 197 198 189 196 199 206 198
143 143 143 144 147 146 144 141 137 133 121 134 120 123 115 60 74 105 137 138 176 137 144 144 142 126 145 128 144 176 178 188 236 132 232 259 255 239 225 227 236 221 201 206 199 190 192 194 191 191 196 200 201 194
149 145 148 150 146 147 142 141 136 121 114 115 76 82 119 110 102 157 157 155 122 141 146 137 133 126 157 145 114 168 182 203 128 206 234 238 259 165 205 203 198 213 204 196 195 190 186 181 182 182 187 188 183 179
151 150 149 151 143 141 141 137 132 132 91 77 112 100 140 150 187 169 146 146 134 145 147 147 135 126 115 139 146 149 177 153 216 224 233 247 237 212 173 179 183 188 190 187 187 177 167 161 165 168 170 173 174 172
157 155 150 146 148 145 140 139 140 89 66 79 90 109 144 113 113 123 106 119 139 147 143 140 111 108 111 119 187 148 180 229 224 231 213 254 282 196 194 180 182 173 172 186 178 173 150 156 155 162 166 171 176 183
154 143 146 152 150 147 144 142 87 52 51 78 89 102 123 117 124 127 142 134 153 137 139 149 132 144 163 154 168 203 194 217 230 215 232 170 193 204 178 179 175 168 173 175 174 167 164 160 162 170 162 167 182 187
138 119 150 146 142 137 130 100 47 51 50 101 88 110 132 111 148 151 149 154 152 154 155 148 134 171 126 181 207 195 213 224 202 168 171 169 178 176 166 171 155 165 174 173 170 169 166 164 161 156 163 172 179 191
122 141 142 139 132 121 90 37 120 131 98 104 102 130 83 118 138 147 157 160 167 171 160 149 126 169 174 193 205 209 214 195 184 176 160 166 170 155 168 167 166 168 166 166 166 163 159 160 165 174 183 183 186 196
135 137 141 142 137 96 81 19 355 84 75 87 110 115 103 115 136 136 161 174 188 154 126 179 164 185 196 205 218 184 192 189 183 179 173 163 163 157 158 159 161 161 161 163 162 161 166 170 172 179 190 193 201 206
124 121 128 141 143 79 87 75 272 117 141 148 141 144 132 142 150 165 168 177 168 154 187 213 211 185 199 189 198 177 163 172 165 162 162 162 167 167 164 164 166 163 161 163 165 165 165 175 182 185 193 199 208 216
108 96 116 118 63 69 103 138 129 114 137 143 142 134 116 141 146 152 163 176 171 208 203 207 191 163 137 149 187 162 160 174 183 185 169 163 175 175 171 176 171 168 164 167 169 177 177 183 189 195 192 194 202 204
97 100 84 60 70 34 61 10 114 116 107 143 141 134 131 144 149 166 168 187 219 214 217 187 200 176 180 187 188 180 174 176 157 119 113 147 168 181 180 180 174 180 178 177 181 185 192 190 187 186 191 198 187 188
89 81 55 57 88 84 81 304 121 138 132 158 141 123 151 148 152 136 187 222 215 210 209 202 192 189 194 186 176 170 175 175 171 167 161 176 180 186 184 185 190 186 183 189 190 190 193 190 187 185 194 189 186 191
69 67 80 94 84 101 142 167 143 113 122 170 163 132 139 138 159 204 230 192 192 193 201 205 200 185 188 192 197 190 190 194 183 164 171 167 171 186 193 194 196 200 200 194 190 190 185 189 191 190 197 189 193 197
77 83 140 113 155 138 142 150 167 116 133 178 127 138 144 165 183 212 225 183 194 200 205 204 204 207 210 204 206 204 194 194 188 179 190 190 183 176 192 200 202 203 195 188 184 190 192 193 195 196 198 199 196 197
118 162 194 145 161 150 157 148 162 156 128 133 174 130 153 161 179 232 211 167 198 201 197 196 201 208 215 216 206 206 208 203 204 210 194 186 191 189 196 196 198 209 206 210 204 198 196 201 203 201 201 208 206 200
192 174 187 219 171 159 115 126 152 139 154 156 153 158 168 196 218 222 179 200 206 218 211 208 208 211 217 217 222 223 210 204 207 220 210 210 214 208 210 209 211 215 216 216 220 217 212 208 206 206 208 210 208 202
206 177 167 171 173 183 150 155 168 176 170 160 158 184 190 207 208 177 198 195 207 206 197 210 213 221 227 222 214 196 196 196 203 213 212 213 212 220 224 225 224 223 227 230 231 229 225 222 218 210 205 206 206 205
185 176 157 183 183 190 205 194 199 187 167 169 180 192 204 219 159 174 167 169 166 180 194 197 197 198 199 190 177 188 193 185 178 179 203 210 201 231 230 236 239 239 235 235 236 236 234 229 223 220 214 208 205 197
178 171 176 176 183 198 198 191 202 198 199 205 222 236 212 191 213 183 171 179 196 205 206 195 186 176 181 177 180 190 202 201 201 199 198 209 221 234 234 234 236 236 234 229 226 223 222 215 206 198 194 189 183 183
185 192 180 183 205 190 178 140 101 128 181 224 307 225 229 228 222 214 212 213 208 197 167 173 181 193 190 188 184 183 212 214 214 216 220 224 223 218 218 227 235 236 228 220 212 209 207 195 191 188 184 182 179 175
199 197 191 191 183 134 132 153 159 188 183 188 207 209 140 186 245 212 207 194 175 192 210 193 191 212 213 214 212 204 208 216 214 219 221 227 234 237 237 236 235 232 222 214 211 209 203 193 190 189 188 184 181 181
201 217 215 208 161 170 175 170 183 191 190 215 214 196 208 219 233 231 208 219 216 216 210 215 220 220 216 212 212 214 216 219 220 222 221 220 223 228 231 232 230 228 221 213 211 208 198 194 194 192 187 184 183 183
Height
485 504 524 543 558 572 589 597 607 617 631 642 656 665 674 689 706 711 718 723 728 730 746 760 768 775 785 793 807 824 834 840 841 846 842 838 835 843 844 842 855 864 869 869 877 876 870 835 850 854 841 844 846 850
504 519 535 550 563 574 586 601 610 621 631 640 651 664 675 690 706 706 718 724 725 742 756 769 776 782 784 788 797 816 812 825 833 837 840 835 842 842 839 845 840 856 846 847 852 849 839 835 836 840 839 842 846 847
522 532 544 559 570 576 588 587 593 610 627 637 652 664 676 692 705 711 718 727 735 755 773 779 785 790 791 793 801 807 813 818 825 829 833 832 835 834 836 830 837 837 834 843 844 831 833 836 836 836 838 840 842 846
534 543 551 560 571 578 585 596 606 616 629 643 655 663 681 694 699 701 711 724 730 749 770 793 796 797 797 801 806 807 811 820 824 828 828 828 827 826 822 819 824 823 828 832 833 827 831 828 830 832 835 838 841 845
544 550 558 564 570 579 585 596 607 618 634 643 652 667 679 691 699 704 717 729 733 743 767 788 798 802 804 806 808 811 815 821 823 825 825 825 819 828 825 826 820 814 817 826 823 815 819 817 822 827 830 835 840 843
557 562 566 571 577 583 592 603 615 624 633 645 657 670 683 691 695 712 729 736 739 750 766 783 803 806 806 808 810 814 817 818 819 819 820 819 828 828 820 814 804 802 807 809 811 811 815 818 822 822 826 830 835 839
565 570 576 580 585 593 602 611 619 627 640 654 667 679 691 702 711 716 730 739 749 752 764 786 800 808 809 811 816 819 821 820 820 820 822 819 826 831 819 812 799 799 800 804 808 810 818 818 821 822 825 828 833 837
569 577 583 586 591 598 606 614 623 636 649 660 672 686 697 705 719 730 737 746 748 750 756 774 797 808 813 810 816 818 820 821 823 820 824 821 824 827 818 801 798 796 798 803 806 810 814 815 820 820 824 828 831 836
563 576 586 588 597 605 614 624 634 645 655 664 678 691 701 716 728 739 746 746 746 751 760 770 783 796 806 805 813 818 816 822 823 821 818 819 815 812 799 793 790 790 792 795 800 807 813 815 816 818 823 827 831 835
584 583 591 600 608 616 624 632 642 653 660 673 686 696 719 729 732 738 743 745 749 756 760 764 769 789 792 804 808 815 816 814 819 814 812 815 801 790 788 786 784 785 788 795 799 804 808 812 814 816 822 826 829 833
596 602 607 612 620 627 634 642 652 662 672 681 700 716 727 728 730 741 754 754 753 756 761 767 774 779 792 797 803 807 812 811 814 805 813 799 786 776 774 775 778 781 787 791 794 797 802 806 810 815 821 824 826 830
606 611 617 623 630 636 644 652 661 667 676 685 697 719 724 729 738 743 747 747 740 748 763 764 776 783 788 795 801 811 807 812 810 811 814 800 770 762 763 769 771 775 782 788 791 794 799 803 808 813 818 822 825 829
611 616 624 631 637 644 652 661 669 674 678 690 701 718 722 735 735 732 750 736 745 748 754 763 776 784 796 794 801 803 809 814 808 815 806 780 760 764 768 770 774 775 777 785 789 793 798 802 806 810 815 820 825 830
620 624 630 636 645 652 660 666 672 677 679 688 702 719 712 727 717 712 713 721 731 742 752 760 770 776 786 790 800 809 801 806 810 806 781 763 756 759 769 772 773 775 775 782 787 793 797 802 806 811 814 819 824 829
625 634 639 647 652 660 666 673 678 680 687 693 693 712 714 708 711 712 716 727 735 743 747 761 769 774 781 802 791 797 808 803 788 771 762 758 758 764 766 772 772 774 779 782 786 793 799 803 808 812 816 820 825 828
633 640 647 653 661 667 673 678 681 685 696 698 703 712 713 721 729 729 729 733 736 738 750 756 762 771 779 778 786 795 784 779 764 761 755 758 763 765 766 771 772 776 780 783 787 794 800 804 807 811 817 820 824 828
637 642 651 659 667 675 680 685 692 706 708 705 714 711 711 713 727 727 729 733 734 737 746 749 764 763 764 772 776 765 763 756 753 756 758 760 761 765 768 771 774 778 781 784 788 794 799 803 808 812 816 820 824 827
643 651 658 667 673 681 692 699 705 708 711 713 715 718 718 717 723 727 729 730 736 737 739 740 745 753 761 757 754 750 753 754 758 758 760 762 763 765 769 772 775 778 780 785 790 795 799 802 806 811 815 818 822 825
650 658 667 673 677 684 700 705 705 706 713 716 717 720 722 724 727 730 733 739 738 736 741 741 741 740 740 742 744 746 748 751 755 760 762 764 764 767 770 773 775 777 782 787 791 795 799 803 806 810 814 816 819 821
660 667 673 678 682 694 707 714 710 708 713 719 721 724 726 730 734 737 737 735 736 740 743 741 735 735 738 741 745 745 748 752 755 759 761 763 765 769 770 773 776 778 783 787 791 795 797 802 805 808 812 815 817 819
667 675 678 681 690 696 702 706 709 712 716 716 718 721 729 733 733 733 735 736 740 738 734 732 735 738 743 745 747 747 750 752 753 752 754 760 764 766 770 773 775 778 782 785 789 794 795 798 803 807 810 812 815 818
677 680 684 691 700 707 706 709 706 710 712 715 717 718 726 731 732 735 737 737 734 732 731 734 736 739 744 745 747 746 749 751 752 754 754 757 762 764 768 771 775 777 779 782 786 790 793 794 797 801 804 807 811 814
681 685 691 697 704 711 719 714 710 711 717 716 716 719 723 723 727 733 738 732 729 730 732 735 736 739 741 743 745 746 749 750 751 752 754 756 759 762 765 769 772 775 777 780 782 785 789 792 793 796 799 803 806 809
686 692 697 702 706 712 715 713 706 711 711 714 714 719 721 724 730 730 724 718 723 728 730 733 735 738 740 743 744 745 747 749 749 751 752 754 756 760 762 765 768 770 772 775 778 781 784 786 789 792 794 797 800 803
692 701 700 703 705 709 710 709 707 709 716 716 715 718 722 723 723 722 717 716 720 724 725 728 730 731 733 736 739 741 743 746 746 747 749 751 752 756 760 761 763 765 768 770 772 774 777 780 784 786 788 791 793 796
693 700 698 696 699 698 699 705 707 709 710 716 717 714 718 720 725 719 705 711 713 714 719 719 720 723 726 728 731 735 737 741 743 743 744 746 749 752 754 756 758 761 763 764 765 767 770 773 776 779 781 783 786 790
692 692 691 688 688 686 692 692 692 699 707 710 711 719 719 718 712 704 703 704 704 704 706 710 713 715 716 719 724 728 731 735 737 738 740 742 744 747 749 750 752 754 756 758 760 761 763 765 768 771 774 777 779 782
684 685 688 690 689 688 693 693 697 696 696 695 702 710 707 702 695 695 696 697 701 703 704 707 710 712 715 716 718 721 726 730 733 735 738 739 740 742 743 744 747 749 752 753 755 756 757 758 761 764 767 769 772 775
679 679 684 690 690 688 690 688 687 684 685 690 697 696 697 691 691 693 695 697 699 702 705 706 707 709 712 714 716 718 721 725 729 733 734 734 736 736 736 738 740 743 745 747 748 750 752 753 755 757 760 764 767 770
672 673 679 684 685 685 684 683 683 684 685 686 686 685 686 690 691 692 694 696 698 700 701 704 705 707 709 711 713 716 717 718 720 722 724 726 726 728 731 732 734 736 739 740 742 744 747 750 753 756 758 760 763 766
664 669 672 675 676 675 679 682 685 686 686 687 689 689 687 688 691 691 692 693 695 697 700 701 703 704 707 708 709 712 713 713 714 716 719 722 724 725 727 728 729 731 733 734 736 738 742 746 749 751 753 755 758 760
665 665 666 668 670 678 680 680 683 684 687 688 688 692 693 693 692 686 686 688 692 694 695 696 698 699 700 702 703 704 705 707 710 712 714 717 720 722 724 725 726 727 728 729 731 734 738 741 744 746 749 752 755 757
662 664 662 663 669 672 676 676 677 679 682 681 681 683 683 683 682 681 680 681 682 684 685 687 688 692 695 697 699 701 704 706 707 709 711 713 715 717 718 720 721 722 723 725 727 730 733 736 739 742 745 748 751 754